Overview Statistics Trail Chart Weather Telemetry Raw packets
 

This is the latest recevied weather packets stored in our database for station/object K0APR. If no packets are shown the sender has not sent any weather packets the latest 10 day(s).

<< 53 54 55 56 57 58 59 >>
Time Temp. Humidity Pressure Rain* Wind** Luminosity Snow
1788304951 25.56° C 69% 1014 hPa 0 mm - 72 W/m² -
1788304670 25.56° C 69% 1014 hPa 0 mm - 78 W/m² -
1788304344 25.56° C 69% 1014 hPa 0 mm - 80 W/m² -
1788304040 25.56° C 68% 1014.4 hPa 0 mm - 78 W/m² -
1788303739 26.11° C 68% 1014.4 hPa 0 mm - 85 W/m² -
1788303435 26.11° C 67% 1014.7 hPa 0 mm - 90 W/m² -
1788303139 26.11° C 67% 1014.4 hPa 0 mm - 96 W/m² -
1788302831 26.11° C 65% 1014.4 hPa 0 mm - 104 W/m² -
1788302527 26.11° C 65% 1014.4 hPa 0 mm - 104 W/m² -
1788302223 26.11° C 64% 1014.4 hPa 0 mm - 84 W/m² -
1788301923 26.11° C 64% 1014.4 hPa 0 mm - 67 W/m² -
1788301619 26.11° C 64% 1014.7 hPa 0 mm - 75 W/m² -
1788301315 26.11° C 65% 1014.7 hPa 0 mm - 84 W/m² -
1788301011 26.11° C 64% 1014.4 hPa 0 mm - 98 W/m² -
1788300707 26.11° C 64% 1014 hPa 0 mm - 101 W/m² -
1788300406 26.11° C 64% 1014.7 hPa 0 mm - 132 W/m² -
1788300105 26.11° C 65% 1014.4 hPa 0 mm - 148 W/m² -
1788299803 26.11° C 66% 1014.7 hPa 0 mm - 127 W/m² -
1788299499 26.11° C 66% 1014.7 hPa 0 mm - 98 W/m² -
1788299197 26.11° C 66% 1014.7 hPa 0 mm - 129 W/m² -
1788298897 26.11° C 66% 1014.7 hPa 0 mm - 123 W/m² -
1788298597 26.11° C 65% 1014.4 hPa 0 mm - 88 W/m² -
1788298291 26.67° C 64% 1014.4 hPa 0 mm - 98 W/m² -
1788297991 26.67° C 63% 1014.4 hPa 0 mm - 89 W/m² -
1788297687 26.67° C 63% 1014 hPa 0 mm - 85 W/m² -

* Rain latest hour (hover to see other rain measurements)
** Current wind speed in m/s (hover to see current wind gust speed)